User: anonymous   Login
Location: Kuppenheim
(48.8299°N, 8.2568°E)
Time: 01:26:20
(UTC+00:00)
Language:

Cosmos 1328 Rocket - Orbit

View from above orbital plane
View from above orbital plane
View from above satellite
View from above satellite

Ground track
Ground track

The orbit data is extracted from the following two-line orbital elements,

1 12988U 81117B   21267.87325519  .00000134  00000-0  12843-4 0  9994
2 12988  82.5250  49.2462 0019607  90.9887  23.0376 14.84828774151396
Epoch (UTC): 24 September 2021 20:57:29
Eccentricity: 0.0019607
inclination: 82.5250°
perigee height: 600 km
apogee height: 628 km
right ascension of ascending node: 49.2462°
argument of perigee: 90.9887°
revolutions per day: 14.84828774
mean anomaly at epoch: 23.0376°
orbit number at epoch: 15139

The dashed part of the orbit path shows where the satellite is in the earth's shadow,  

DLR